GEESAT 3-09

导读

GEESAT 3-09是中国于北京时间2024年9月5日8时成功发射的低轨商业通信卫星,隶属于吉利未来出行星座体系。该卫星由中国民企时空道宇研制,属于GEESATCOM星座组网批次卫星,其成功入轨标志着GEESATCOM完成近半数部署,同步开启全球商业卫星通信服务,将为未来智能移动出行提供天地一体化通信支撑。

基本信息
目录编号:
61019
目录名称:
GEESAT 3-09
国际标识:
2024-159J
轨道中心:
EARTH
卫星名称:
GEESAT 3-09
卫星全名:
GEESAT 3-09
卫星状态:
在轨 (已飞行690 天)
发射日期:
2024-09-05 UTC
国别 :
中国 (CN)
星等 :
--
轨道信息
数据来源 国际轨道数据 AOE轨道数据
星历时间 2026-07-27T22:05:00+0800
9小时前
查看轨道信息
2026-07-26T04:00:00+0800
2天前
查看轨道信息
半长轴 6993.725km 6993.748km
偏心率 0.0022358 0.0022276
轨道倾角 49.997° 49.996°
近地点辐角 216.313° 209.516°
升交点赤经 255.289° 263.423°
平近点角 143.630° 133.683°
近地点 599.951km 600.031km
远地点 631.225km 631.191km
周期 97.011分钟 97.012分钟
每日圈数 14.843624 14.843553
详细信息
使用方式:
暂无
2D轨道图
3D轨道图
轨道高度分析图
轨道倾角分析图
轨道综合分析图
查看轨道综合分析图